Regional Weather Roundup
Issued by NWS

Home | Current Version | Previous Version | Graphics & Text | Print | Product List | Glossary On
Versions: 1 2 3 4 5 6 7 8 9 10 11 12 13 14 15 16 17 18 19 20 21 22 23 24 25 26 27 28 29 30 31 32 33 34 35 36 37 38 39 40 41 42 43 44 45 46 47 48 49 50
472
ASUS43 KLSX 252307
RWRMO

WEATHER SUMMARY FOR MISSOURI
NATIONAL WEATHER SERVICE SPRINGFIELD MO
600 PM CDT SAT MAR 25 2017

NOTE: "FAIR" INDICATES FEW OR NO CLOUDS BELOW 12,000 FEET WITH NO
       SIGNIFICANT WEATHER AND/OR OBSTRUCTIONS TO VISIBILITY.
       CURRENT SKY AND/OR WEATHER CONDITIONS ARE NOT AVAILABLE FOR
       CHILLICOTHE AND FARMINGTON.

MOZ001>031-035>038-043-044-053-054-260000-
...NORTHERN AND WESTERN MISSOURI...

CITY           SKY/WX    TMP DP  RH WIND       PRES   REMARKS
KANSAS CTY INT CLOUDY    49  47  93 N9        29.84R
KANSAS C DTWN  CLOUDY    53  47  79 NW9       29.83R
LEE`S SUMMIT   CLOUDY    55  50  83 NW12      29.82R
ST JOSEPH      CLOUDY    47  45  93 N12       29.87R
CHILLICOTHE      N/A     50  48  93 N7        29.84R
KIRKSVILLE     CLOUDY    50  49  96 N10       29.83R FOG

$$
MOZ066>068-077>081-088>096-101>105-260000-
...SOUTHWEST MISSOURI...

CITY           SKY/WX    TMP DP  RH WIND       PRES   REMARKS
SPRINGFIELD    CLOUDY    49  46  90 SW13      29.87R FOG
JOPLIN         CLOUDY    48  44  86 W14       29.90R
BRANSON        CLOUDY    50  46  87 W9        29.90R

$$
MOZ032>034-039>042-045>050-055>058-069>072-260000-
...CENTRAL MISSOURI...

CITY           SKY/WX    TMP DP  RH WIND       PRES   REMARKS
COLUMBIA       LGT RAIN  57  56  96 NE5       29.76F
JEFFERSON CITY CLOUDY    61  55  81 E5        29.76F
ROLLA          CLOUDY    58  56  93 SW12      29.76R
SEDALIA        LGT RAIN  57  56  96 W10       29.79R
WHITEMAN AFB   HVY RAIN  55  55 100 N12       29.79R FOG
WARRENSBURG    RAIN      54  52  94 N8        29.80R
OSAGE BEACH    RAIN     N/A N/A N/A SW10      29.80R

$$
MOZ051-052-059>065-260000-
...EAST CENTRAL MISSOURI...

CITY           SKY/WX    TMP DP  RH WIND       PRES   REMARKS
ST LOUIS INTL  CLOUDY    66  56  70 SE16G25   29.79S
SPIRIT OF STL  TSTM      61  59  93 SW7       29.79R FOG
ST CHARLES     CLOUDY    64  58  80 SE17      29.78S

$$
MOZ072>076-082>087-097>100-106>115-260000-
...SOUTH CENTRAL AND SOUTHEAST MISSOURI...

CITY           SKY/WX    TMP DP  RH WIND       PRES   REMARKS
CAPE GIRARDEAU CLOUDY    65  57  75 S16G26    29.82F
FARMINGTON     CLOUDY    61  55  81 W8        29.81R
POPLAR BLUFF   MOSUNNY   67  53  61 SW18G24   29.81R
WEST PLAINS    CLOUDY    56  52  86 SW10      29.85R

$$



USA.gov is the U.S. government's official web portal to all federal, state and local government web resources and services.